Location: Black Creek
(40.9000°S, 175.5500°E)
Time: 09:02:54
(UTC+00:00)

Explorer 7 - Pass Details

Date: 12 November 2024
Orbit: 455 x 598 km, 50.3° (Epoch: 07 December)

Event Time Altitude Azimuth Distance (km) Brightness Sun altitude
Rises 09:05:36 0° 235° (SW) 2,588 11.8 -18.4°
Reaches altitude 10° 09:07:54 10° 228° (SW) 1,681 10.6 -18.7°
Maximum altitude 09:11:33 44° 154° (SSE) 664 7.3 -19.2°
Enters shadow 09:12:32 35° 111° (ESE) 781 7.4 -19.3°
